Location: Deurze
(52.9838°N, 6.6090°E)
Time: 18:40:58
(UTC+00:00)

Meteor 1-21 - Pass Details

Date: 11 March 2026
Orbit: 843 x 887 km, 81.2° (Epoch: 20 April)

Event Time Altitude Azimuth Distance (km) Brightness Sun altitude
Rises 20:52:14 0° 346° (NNW) 3,507 8.2 -29.3°
Reaches altitude 10° 20:54:42 10° 348° (NNW) 2,562 7.3 -29.6°
Enters shadow 20:59:46 67° 4° (N) 955 4.4 -30.1°
